Salisbury, MD

12:41 PM EDT on April 22, 2018 (GMT -0400)
Salisbury-Ocean City Wicomico Regional

Weather History for KSBY - October, 2012

Change the Weather History Date:

Sunday, October 7, 2012

  Actual Average Record
Temperature  
Mean Temperature 55 °F 60 °F  
Max Temperature 59 °F 71 °F 95 °F (1941)
Min Temperature 50 °F 49 °F 31 °F (2001)
Degree Days  
Heating Degree Days 10 6  
Month to date heating degree days 13 37  
Since 1 July heating degree days 32 85  
Cooling Degree Days 0 1  
Month to date cooling degree days 50 11  
Year to date cooling degree days 1712 1136  
Growing Degree Days 4 (Base 50)    
Moisture  
Dew Point 48 °F    
Average Humidity 75    
Maximum Humidity 89    
Minimum Humidity 61    
Precipitation  
Precipitation 0.47 in 0.12 in 3.08 in (1972)
Month to date precipitation 0.71 0.81  
Year to date precipitation 31.01 35.86  
Snow  
Snow 0.00 in 0.00 in 0.00 in (2002)
Month to date snowfall 0.0 0.0  
Since 1 July snowfall 0.0 0.0  
Snow Depth 0.00 in    
Sea Level Pressure  
Sea Level Pressure 30.09 in    
Wind  
Wind Speed 6 mph (NNW)    
Max Wind Speed 15 mph    
Max Gust Speed 18 mph    
Visibility 7 miles    
Events Rain    
T = Trace of Precipitation, MM = Missing Value Source: NWS Daily Summary

Daily Weather History Graph

Daily Weather History Graph

Search for Another Location

Airport or City:

Astronomy

Oct. 07, 2012 Rise Set
Actual Time 7:03 AM EDT 6:35 PM EDT
Civil Twilight 6:37 AM EDT 7:01 PM EDT
Nautical Twilight 6:06 AM EDT 7:32 PM EDT
Astronomical Twilight 5:35 AM EDT 8:02 PM EDT
Moon 11:47 PM EDT (10/7) 1:36 PM EDT (10/7)
Length of Visible Light 12h 24m
Length of Day
11h 31m
Waning Gibbous, 56% of the Moon is Illuminated
Oct 7
Waning Gibbous
Oct 8
Last Quarter
Oct 15
New
Oct 21
First Quarter
Oct 29
Full

Hourly Weather History & Observations

Time (EDT) Temp. Dew Point Humidity Pressure Visibility Wind Dir Wind Speed Gust Speed Precip Events Conditions
12:54 AM 59.0 °F 46.0 °F 62% 30.04 in 10.0 mi North 3.5 mph - N/A   Overcast
1:54 AM 57.0 °F 46.0 °F 67% 30.04 in 10.0 mi North 4.6 mph - N/A   Scattered Clouds
3:54 AM 55.9 °F 46.0 °F 69% 30.04 in 10.0 mi North 5.8 mph - N/A   Overcast
4:54 AM 55.9 °F 44.1 °F 64% 30.04 in 10.0 mi North 9.2 mph - N/A   Overcast
5:54 AM 55.9 °F 42.1 °F 60% 30.06 in 10.0 mi North 9.2 mph - N/A   Overcast
6:54 AM 55.0 °F 44.1 °F 67% 30.07 in 10.0 mi North 6.9 mph - 0.00 in Rain Light Rain
7:54 AM 52.0 °F 46.9 °F 83% 30.10 in 5.0 mi NW 6.9 mph - 0.10 in Rain Light Rain
8:54 AM 53.1 °F 48.0 °F 83% 30.11 in 10.0 mi Calm Calm - 0.01 in Rain Light Rain
9:54 AM 54.0 °F 48.0 °F 80% 30.11 in 10.0 mi NNW 8.1 mph - 0.00 in   Overcast
10:54 AM 54.0 °F 48.9 °F 83% 30.10 in 6.0 mi North 8.1 mph - 0.04 in Rain Light Rain
11:26 AM 53.6 °F 48.2 °F 82% 30.09 in 2.0 mi North 6.9 mph - 0.08 in Rain Rain
11:47 AM 53.6 °F 48.2 °F 82% 30.10 in 4.0 mi North 5.8 mph - 0.14 in Rain Light Rain
11:54 AM 53.1 °F 48.9 °F 86% 30.10 in 4.0 mi NNE 6.9 mph - 0.16 in Rain Rain
12:54 PM 53.1 °F 48.9 °F 86% 30.08 in 5.0 mi North 4.6 mph - 0.08 in Rain Light Rain
1:54 PM 54.0 °F 48.0 °F 80% 30.06 in 10.0 mi North 6.9 mph - 0.00 in   Overcast
2:21 PM 55.4 °F 50.0 °F 82% 30.04 in 10.0 mi NNE 5.8 mph - N/A   Overcast
2:54 PM 55.0 °F 50.0 °F 83% 30.05 in 10.0 mi North 4.6 mph - N/A   Overcast
3:09 PM 55.4 °F 50.0 °F 82% 30.03 in 9.0 mi North 8.1 mph - N/A   Overcast
3:28 PM 53.6 °F 50.0 °F 88% 30.03 in 5.0 mi North 6.9 mph - N/A   Overcast
3:54 PM 54.0 °F 48.9 °F 83% 30.03 in 10.0 mi NNE 10.4 mph - N/A   Overcast
4:54 PM 55.0 °F 48.0 °F 77% 30.01 in 10.0 mi North 5.8 mph - N/A   Overcast
5:54 PM 55.0 °F 48.9 °F 80% 30.03 in 10.0 mi NNW 6.9 mph - N/A   Overcast
6:54 PM 52.0 °F 48.0 °F 86% 30.06 in 4.0 mi North 6.9 mph - 0.01 in   Overcast
7:12 PM 51.8 °F 48.2 °F 88% 30.08 in 4.0 mi NW 9.2 mph - N/A   Overcast
7:25 PM 51.8 °F 48.2 °F 88% 30.08 in 3.0 mi NNW 10.4 mph - 0.00 in Rain Light Rain
7:34 PM 51.8 °F 48.2 °F 88% 30.09 in 3.0 mi NW 11.5 mph - 0.00 in Rain Light Rain
7:54 PM 52.0 °F 48.0 °F 86% 30.11 in 3.0 mi NW 10.4 mph 18.4 mph 0.01 in Rain Light Rain
8:03 PM 51.8 °F 48.2 °F 88% 30.11 in 2.5 mi NW 10.4 mph - 0.02 in Rain Light Rain
8:10 PM 51.8 °F 48.2 °F 88% 30.11 in 3.0 mi NW 10.4 mph - 0.02 in Rain Light Rain
8:22 PM 51.8 °F 48.2 °F 88% 30.11 in 4.0 mi NNW 8.1 mph - 0.03 in Rain Light Rain
8:32 PM 51.8 °F 48.2 °F 88% 30.12 in 4.0 mi NNW 12.7 mph 18.4 mph 0.03 in Rain Light Rain
8:39 PM 51.8 °F 46.4 °F 82% 30.13 in 5.0 mi NW 13.8 mph - 0.04 in Rain Light Rain
8:54 PM 50.0 °F 46.9 °F 89% 30.14 in 4.0 mi NNW 11.5 mph - 0.04 in Rain Light Rain
9:20 PM 51.8 °F 46.4 °F 82% 30.13 in 3.0 mi NNW 10.4 mph - 0.01 in Rain Light Rain
9:52 PM 51.8 °F 46.4 °F 82% 30.13 in 10.0 mi Variable 4.6 mph - 0.02 in   Overcast
9:54 PM 51.1 °F 46.9 °F 86% 30.15 in 10.0 mi North 4.6 mph - 0.02 in   Overcast
10:54 PM 51.1 °F 46.9 °F 86% 30.15 in 9.0 mi North 4.6 mph - 0.00 in   Overcast
11:14 PM 51.8 °F 46.4 °F 82% 30.14 in 10.0 mi North 5.8 mph - N/A   Overcast
11:39 PM 51.8 °F 46.4 °F 82% 30.14 in 10.0 mi North 4.6 mph - N/A   Overcast
11:54 PM 51.1 °F 46.9 °F 86% 30.15 in 10.0 mi NNW 4.6 mph - N/A   Overcast